Flag for Guadeloupe Weather past 2 weeks in Basse-Terre, Guadeloupe

Now
77 °F

Passing clouds.


Feels Like: 78 °F
Forecast: 78 / 82 °F
Wind: 3 mph from Southeast

Location: Le Raizet - Guadeloupe

Current Time: Aug 22, 2014 at 12:11:13 AM

Latest Report: Aug 22, 2014 at 12:00 AM


Visibility: N/A

Pressure: 29.89 "Hg

Humidity: 94%

Dew point: 75 °F

Location of Basse-TerreLocation

Historic Weather in Basse-Terre — Graph

°F

Basse-Terre temperature yesterday

Maximum temperature yesterday: 84 °F (at 10:30 AM)
Minimum temperature yesterday: 77 °F (at 2:30 AM)
Average temperature yesterday: 80 °F

Past Weeks' High & Low Weather Summary

 TemperatureHumidityPressure
High90 °F (Aug 12, 12:30 PM)94% (Aug 8, 5:00 AM)30.09 "Hg (Aug 8, 5:00 AM)
Low73 °F (Aug 8, 6:30 AM)49% (Aug 14, 2:30 PM)29.83 "Hg (Aug 21, 3:30 PM)
Average81 °F75%29.99 "Hg
* Reported Aug 6 11:00 PM — Aug 21 11:00 PM, Basse-Terre, Weather by CustomWeather, © 2014

Note: Actual official high and low records may vary slightly from our data, if they occured in-between our weather recording intervals... More about our weather records

Advertising

Basse-Terre weather history for previous 24 hours

 ConditionsComfort  
Time TempWeatherWind HumidityBarometerVisibility
11:00 PM
Aug 21
79 °FPassing clouds.2 mph89%29.89 "Hg4 mi
10:30 PM79 °FFog.3 mph89%29.92 "Hg3 mi
10:00 PM77 °FPassing clouds.3 mph94%29.92 "HgN/A
9:30 PM79 °FMostly cloudy.2 mph89%29.89 "HgN/A
9:00 PM79 °FPartly cloudy.3 mph89%29.89 "Hg6 mi
8:30 PM79 °FPassing clouds.3 mph89%29.89 "HgN/A
8:00 PM79 °FClear.3 mph89%29.86 "HgN/A
7:30 PM79 °FClear.3 mph89%29.86 "HgN/A
7:00 PM79 °FPassing clouds.1 mph89%29.86 "HgN/A
6:30 PM79 °FPartly cloudy.5 mph89%29.86 "HgN/A
6:00 PM81 °FBroken clouds.3 mph84%29.83 "HgN/A
5:30 PM81 °FPartly sunny.3 mph84%29.83 "HgN/A
5:00 PM81 °FSprinkles. Partly sunny.3 mph84%29.83 "HgN/A
4:30 PM81 °FSprinkles. Partly sunny.6 mph84%29.83 "HgN/A
4:00 PM81 °FPartly sunny.7 mph79%29.83 "HgN/A
3:30 PM82 °FPartly sunny.9 mph79%29.83 "HgN/A
3:00 PM82 °FPartly sunny.12 mph74%29.86 "HgN/A
2:30 PM84 °FPartly sunny.10 mph70%29.86 "HgN/A
2:00 PM84 °FPartly sunny.10 mph74%29.86 "HgN/A
1:30 PM84 °FScattered clouds.9 mph74%29.86 "HgN/A
1:00 PM81 °FThundershowers. Scattered clouds.7 mph84%29.89 "HgN/A
12:30 PM79 °FThunderstorms. Broken clouds.8 mph89%29.89 "Hg5 mi
12:00 PM81 °FThunderstorms. Broken clouds.7 mph84%29.92 "HgN/A
11:30 AM82 °FThunderstorms. Broken clouds.8 mph79%29.92 "HgN/A
11:00 AM82 °FSprinkles. Partly sunny.12 mph79%29.92 "HgN/A
10:30 AM84 °FScattered clouds.10 mph74%29.92 "HgN/A
10:00 AM82 °FBroken clouds.8 mph79%29.95 "HgN/A
9:30 AM82 °FThundershowers. Scattered clouds.9 mph79%29.92 "HgN/A
9:00 AM82 °FBroken clouds.12 mph79%29.92 "HgN/A
8:00 AM82 °FBroken clouds.3 mph84%29.92 "HgN/A
7:30 AM81 °FBroken clouds.2 mph89%29.92 "HgN/A
7:00 AM79 °FLight rain. Scattered clouds.No wind94%29.92 "HgN/A
6:30 AM77 °FPassing clouds.2 mph94%29.92 "HgN/A
6:00 AM77 °FPassing clouds.No wind94%29.92 "HgN/A
5:30 AM77 °FPassing clouds.No wind94%29.92 "HgN/A
5:00 AM77 °FPartly cloudy.3 mph94%29.92 "HgN/A
4:30 AM77 °FRain. Fog.5 mph94%29.92 "Hg1 mi
4:00 AM79 °FPartly cloudy.2 mph89%29.92 "HgN/A
3:30 AM77 °FPassing clouds.1 mph89%29.89 "HgN/A
3:00 AM77 °FPassing clouds.3 mph89%29.92 "HgN/A
2:30 AM77 °FPartly cloudy.3 mph89%29.92 "HgN/A
2:00 AM79 °FPassing clouds.6 mph89%29.92 "HgN/A
1:30 AM79 °FLight rain. Partly cloudy.2 mph89%29.95 "Hg4 mi
1:00 AM81 °FPassing clouds.5 mph79%29.95 "HgN/A
12:30 AM79 °FPassing clouds.3 mph84%29.95 "HgN/A
12:00 AM79 °FPassing clouds.5 mph84%29.95 "HgN/A
Weather by CustomWeather, © 2014

See weather overviewHow to use our weather pages